Time,TemperatureF,DewpointF,PressureIn,WindDirection,WindDirectionDegrees,WindSpeedMPH,WindSpeedGustMPH,Humidity,HourlyPrecipIn,Conditions,Clouds,dailyrainin,SoftwareType,DateUTC
2013-09-17 00:02:00,47.2,42.0,30.26,SW,221,0.0,2.0,81,0.00,,,0.00,weatherlink.com 1.10,2013-09-17 04:02:00,
2013-09-17 00:17:00,46.9,41.0,30.27,SW,232,0.0,3.0,81,0.00,,,0.00,weatherlink.com 1.10,2013-09-17 04:17:00,
2013-09-17 00:32:00,46.6,41.0,30.27,SW,232,0.0,2.0,81,0.00,,,0.00,weatherlink.com 1.10,2013-09-17 04:32:00,
2013-09-17 00:47:00,46.3,41.0,30.28,SW,232,0.0,0.0,81,0.00,,,0.00,weatherlink.com 1.10,2013-09-17 04:47:00,
2013-09-17 01:02:00,45.8,40.0,30.28,SW,236,1.0,1.0,81,0.00,,,0.00,weatherlink.com 1.10,2013-09-17 05:02:00,
2013-09-17 01:17:00,45.4,40.0,30.29,SW,236,0.0,1.0,82,0.00,,,0.00,weatherlink.com 1.10,2013-09-17 05:17:00,
2013-09-17 01:32:00,45.1,39.0,30.29,WSW,246,0.0,2.0,80,0.00,,,0.00,weatherlink.com 1.10,2013-09-17 05:32:00,
2013-09-17 01:47:00,45.0,39.0,30.30,WNW,296,0.0,1.0,80,0.00,,,0.00,weatherlink.com 1.10,2013-09-17 05:47:00,
2013-09-17 02:02:00,44.8,40.0,30.30,WSW,257,0.0,2.0,82,0.00,,,0.00,weatherlink.com 1.10,2013-09-17 06:02:00,
2013-09-17 02:17:00,44.6,39.0,30.30,West,275,0.0,3.0,80,0.00,,,0.00,weatherlink.com 1.10,2013-09-17 06:17:00,
2013-09-17 02:32:00,44.4,39.0,30.30,West,278,0.0,2.0,80,0.00,,,0.00,weatherlink.com 1.10,2013-09-17 06:32:00,
2013-09-17 02:47:00,44.0,38.0,30.31,NW,315,0.0,2.0,80,0.00,,,0.00,weatherlink.com 1.10,2013-09-17 06:47:00,
2013-09-17 03:02:00,43.6,38.0,30.31,WNW,300,0.0,0.0,81,0.00,,,0.00,weatherlink.com 1.10,2013-09-17 07:02:00,
2013-09-17 03:17:00,43.3,38.0,30.31,WNW,300,0.0,0.0,82,0.00,,,0.00,weatherlink.com 1.10,2013-09-17 07:17:00,
2013-09-17 03:32:00,42.9,37.0,30.31,WNW,300,0.0,0.0,80,0.00,,,0.00,weatherlink.com 1.10,2013-09-17 07:32:00,
2013-09-17 03:47:00,42.9,37.0,30.30,WNW,300,0.0,0.0,81,0.00,,,0.00,weatherlink.com 1.10,2013-09-17 07:47:00,
2013-09-17 04:02:00,42.9,37.0,30.31,WNW,300,0.0,0.0,80,0.00,,,0.00,weatherlink.com 1.10,2013-09-17 08:02:00,
2013-09-17 04:17:00,42.8,37.0,30.32,WNW,300,0.0,1.0,81,0.00,,,0.00,weatherlink.com 1.10,2013-09-17 08:17:00,
2013-09-17 04:32:00,42.5,38.0,30.32,WNW,300,0.0,2.0,83,0.01,,,0.01,weatherlink.com 1.10,2013-09-17 08:32:00,
2013-09-17 04:47:00,42.2,37.0,30.32,WNW,300,0.0,0.0,82,0.01,,,0.01,weatherlink.com 1.10,2013-09-17 08:47:00,
2013-09-17 05:02:00,42.0,37.0,30.32,WNW,300,0.0,2.0,82,0.01,,,0.01,weatherlink.com 1.10,2013-09-17 09:02:00,
2013-09-17 05:18:00,42.0,36.0,30.33,NNW,342,0.0,1.0,80,0.01,,,0.01,weatherlink.com 1.10,2013-09-17 09:18:00,
2013-09-17 05:33:00,42.0,37.0,30.34,WNW,296,0.0,2.0,81,0.00,,,0.01,weatherlink.com 1.10,2013-09-17 09:33:00,
2013-09-17 05:48:00,42.0,37.0,30.34,WNW,296,0.0,0.0,81,0.00,,,0.01,weatherlink.com 1.10,2013-09-17 09:48:00,
2013-09-17 06:03:00,41.9,37.0,30.35,NW,305,1.0,1.0,81,0.00,,,0.01,weatherlink.com 1.10,2013-09-17 10:03:00,
2013-09-17 06:18:00,41.8,36.0,30.35,NW,305,0.0,1.0,81,0.00,,,0.01,weatherlink.com 1.10,2013-09-17 10:18:00,
2013-09-17 06:33:00,41.6,37.0,30.36,NW,305,1.0,2.0,82,0.00,,,0.01,weatherlink.com 1.10,2013-09-17 10:33:00,
2013-09-17 06:48:00,41.4,36.0,30.38,NW,326,0.0,1.0,82,0.00,,,0.01,weatherlink.com 1.10,2013-09-17 10:48:00,
2013-09-17 07:03:00,41.3,37.0,30.38,NW,326,0.0,0.0,83,0.00,,,0.01,weatherlink.com 1.10,2013-09-17 11:03:00,
2013-09-17 07:18:00,41.3,37.0,30.38,North,5,0.0,0.0,85,0.00,,,0.01,weatherlink.com 1.10,2013-09-17 11:18:00,
2013-09-17 07:33:00,41.7,38.0,30.39,ENE,69,0.0,2.0,87,0.00,,,0.01,weatherlink.com 1.10,2013-09-17 11:33:00,
2013-09-17 07:48:00,42.6,38.0,30.39,WNW,292,0.0,2.0,83,0.00,,,0.01,weatherlink.com 1.10,2013-09-17 11:48:00,
2013-09-17 08:03:00,43.6,38.0,30.39,WSW,251,1.0,4.0,81,0.00,,,0.01,weatherlink.com 1.10,2013-09-17 12:03:00,
2013-09-17 08:18:00,44.4,38.0,30.40,WSW,250,0.0,2.0,79,0.00,,,0.01,weatherlink.com 1.10,2013-09-17 12:18:00,
2013-09-17 08:33:00,45.2,37.0,30.40,South,190,0.0,2.0,74,0.00,,,0.01,weatherlink.com 1.10,2013-09-17 12:33:00,
2013-09-17 08:48:00,46.2,39.0,30.41,ENE,57,0.0,2.0,75,0.00,,,0.01,weatherlink.com 1.10,2013-09-17 12:48:00,
2013-09-17 09:03:00,47.6,39.0,30.41,South,178,0.0,4.0,73,0.00,,,0.01,weatherlink.com 1.10,2013-09-17 13:03:00,
2013-09-17 09:18:00,48.3,39.0,30.42,SW,234,0.0,3.0,71,0.00,,,0.01,weatherlink.com 1.10,2013-09-17 13:18:00,
2013-09-17 09:33:00,50.0,39.0,30.42,SSE,166,0.0,4.0,66,0.00,,,0.01,weatherlink.com 1.10,2013-09-17 13:33:00,
2013-09-17 09:48:00,50.7,39.0,30.42,WSW,249,0.0,5.0,64,0.00,,,0.01,weatherlink.com 1.10,2013-09-17 13:48:00,
2013-09-17 10:03:00,51.2,39.0,30.42,SW,222,0.0,6.0,63,0.00,,,0.01,weatherlink.com 1.10,2013-09-17 14:03:00,
2013-09-17 10:18:00,51.8,38.0,30.42,SW,224,3.0,7.0,59,0.00,,,0.01,weatherlink.com 1.10,2013-09-17 14:18:00,
2013-09-17 10:33:00,52.4,37.0,30.42,South,186,1.0,4.0,56,0.00,,,0.01,weatherlink.com 1.10,2013-09-17 14:33:00,
2013-09-17 10:49:00,52.7,38.0,30.42,SSE,157,1.0,6.0,58,0.00,,,0.01,weatherlink.com 1.10,2013-09-17 14:49:00,
2013-09-17 11:04:00,53.3,38.0,30.42,West,267,0.0,3.0,56,0.00,,,0.01,weatherlink.com 1.10,2013-09-17 15:04:00,
2013-09-17 11:19:00,54.1,37.0,30.41,SE,134,0.0,3.0,52,0.00,,,0.01,weatherlink.com 1.10,2013-09-17 15:19:00,
2013-09-17 11:34:00,54.6,38.0,30.41,ENE,65,0.0,3.0,53,0.01,,,0.02,weatherlink.com 1.10,2013-09-17 15:34:00,
2013-09-17 11:49:00,55.3,37.0,30.41,SW,214,1.0,3.0,51,0.01,,,0.02,weatherlink.com 1.10,2013-09-17 15:49:00,
2013-09-17 12:04:00,56.0,36.0,30.40,West,269,0.0,3.0,47,0.01,,,0.02,weatherlink.com 1.10,2013-09-17 16:04:00,
2013-09-17 12:19:00,56.5,36.0,30.40,SSE,152,1.0,2.0,46,0.01,,,0.02,weatherlink.com 1.10,2013-09-17 16:19:00,
2013-09-17 12:34:00,57.4,36.0,30.40,West,264,1.0,4.0,45,0.00,,,0.02,weatherlink.com 1.10,2013-09-17 16:34:00,
2013-09-17 12:49:00,57.4,33.0,30.40,SW,223,1.0,4.0,40,0.00,,,0.02,weatherlink.com 1.10,2013-09-17 16:49:00,
2013-09-17 13:04:00,57.7,33.0,30.39,SSW,205,1.0,4.0,40,0.00,,,0.02,weatherlink.com 1.10,2013-09-17 17:04:00,
2013-09-17 13:19:00,58.4,37.0,30.39,WSW,249,0.0,4.0,46,0.00,,,0.02,weatherlink.com 1.10,2013-09-17 17:19:00,
2013-09-17 13:34:00,58.3,36.0,30.38,SSE,159,2.0,4.0,44,0.00,,,0.02,weatherlink.com 1.10,2013-09-17 17:34:00,
2013-09-17 13:49:00,58.8,38.0,30.37,ESE,102,1.0,2.0,46,0.00,,,0.02,weatherlink.com 1.10,2013-09-17 17:49:00,
2013-09-17 14:04:00,59.0,36.0,30.37,West,279,0.0,5.0,43,0.00,,,0.02,weatherlink.com 1.10,2013-09-17 18:04:00,
2013-09-17 14:19:00,59.3,39.0,30.37,NE,47,1.0,5.0,47,0.00,,,0.02,weatherlink.com 1.10,2013-09-17 18:19:00,
2013-09-17 14:34:00,58.8,37.0,30.36,WSW,244,0.0,4.0,45,0.00,,,0.02,weatherlink.com 1.10,2013-09-17 18:34:00,
2013-09-17 14:50:00,59.1,38.0,30.36,North,350,1.0,3.0,45,0.00,,,0.02,weatherlink.com 1.10,2013-09-17 18:50:00,
2013-09-17 15:04:00,59.4,37.0,30.36,SSE,167,1.0,3.0,44,0.00,,,0.02,weatherlink.com 1.10,2013-09-17 19:04:00,
2013-09-17 15:19:00,59.3,41.0,30.35,WSW,251,1.0,3.0,52,0.00,,,0.02,weatherlink.com 1.10,2013-09-17 19:19:00,
2013-09-17 15:34:00,59.2,41.0,30.35,NW,306,0.0,3.0,51,0.00,,,0.02,weatherlink.com 1.10,2013-09-17 19:34:00,
2013-09-17 15:49:00,59.5,41.0,30.34,WSW,239,1.0,3.0,50,0.00,,,0.02,weatherlink.com 1.10,2013-09-17 19:49:00,
2013-09-17 16:04:00,59.1,42.0,30.34,SW,232,0.0,4.0,54,0.00,,,0.02,weatherlink.com 1.10,2013-09-17 20:04:00,
2013-09-17 16:19:00,58.2,42.0,30.34,SW,232,1.0,4.0,55,0.00,,,0.02,weatherlink.com 1.10,2013-09-17 20:19:00,
2013-09-17 16:34:00,57.7,42.0,30.34,SW,232,2.0,2.0,56,0.00,,,0.02,weatherlink.com 1.10,2013-09-17 20:34:00,
2013-09-17 16:49:00,57.3,42.0,30.34,SW,234,2.0,3.0,58,0.00,,,0.02,weatherlink.com 1.10,2013-09-17 20:49:00,
2013-09-17 17:04:00,56.6,42.0,30.34,WSW,246,0.0,3.0,59,0.00,,,0.02,weatherlink.com 1.10,2013-09-17 21:04:00,
2013-09-17 17:19:00,55.7,43.0,30.34,WSW,246,0.0,0.0,62,0.00,,,0.02,weatherlink.com 1.10,2013-09-17 21:19:00,
2013-09-17 17:34:00,54.8,43.0,30.34,WSW,246,0.0,1.0,65,0.00,,,0.02,weatherlink.com 1.10,2013-09-17 21:34:00,
2013-09-17 17:49:00,54.3,43.0,30.34,West,275,0.0,0.0,65,0.01,,,0.03,weatherlink.com 1.10,2013-09-17 21:49:00,
2013-09-17 18:04:00,53.7,43.0,30.34,NW,321,0.0,1.0,68,0.01,,,0.03,weatherlink.com 1.10,2013-09-17 22:04:00,
2013-09-17 18:19:00,53.3,43.0,30.34,NW,321,0.0,0.0,68,0.01,,,0.03,weatherlink.com 1.10,2013-09-17 22:19:00,
2013-09-17 18:34:00,52.9,44.0,30.34,NW,321,0.0,0.0,72,0.01,,,0.03,weatherlink.com 1.10,2013-09-17 22:34:00,
2013-09-17 18:50:00,52.2,43.0,30.33,NW,325,0.0,1.0,71,0.00,,,0.03,weatherlink.com 1.10,2013-09-17 22:50:00,
2013-09-17 19:04:00,51.9,45.0,30.33,NNW,342,0.0,1.0,77,0.00,,,0.03,weatherlink.com 1.10,2013-09-17 23:04:00,
2013-09-17 19:19:00,50.6,45.0,30.33,NNW,342,0.0,0.0,82,0.00,,,0.03,weatherlink.com 1.10,2013-09-17 23:19:00,
2013-09-17 19:34:00,49.5,45.0,30.34,NNW,342,0.0,0.0,84,0.00,,,0.03,weatherlink.com 1.10,2013-09-17 23:34:00,
2013-09-17 19:49:00,48.5,45.0,30.34,NNW,342,0.0,0.0,87,0.00,,,0.03,weatherlink.com 1.10,2013-09-17 23:49:00,
2013-09-17 20:04:00,47.9,44.0,30.34,NNW,342,0.0,0.0,87,0.00,,,0.03,weatherlink.com 1.10,2013-09-18 00:04:00,
2013-09-17 20:19:00,47.3,44.0,30.34,NNW,342,0.0,0.0,88,0.00,,,0.03,weatherlink.com 1.10,2013-09-18 00:19:00,
2013-09-17 20:34:00,46.9,44.0,30.34,NNW,342,0.0,0.0,89,0.00,,,0.03,weatherlink.com 1.10,2013-09-18 00:34:00,
2013-09-17 20:49:00,46.6,43.0,30.34,NNW,342,0.0,1.0,88,0.00,,,0.03,weatherlink.com 1.10,2013-09-18 00:49:00,
2013-09-17 21:04:00,46.3,43.0,30.34,NNW,342,0.0,1.0,89,0.00,,,0.03,weatherlink.com 1.10,2013-09-18 01:04:00,
2013-09-17 21:19:00,45.8,43.0,30.34,North,355,0.0,1.0,89,0.00,,,0.03,weatherlink.com 1.10,2013-09-18 01:19:00,
2013-09-17 21:34:00,45.1,42.0,30.35,NNE,21,0.0,2.0,90,0.00,,,0.03,weatherlink.com 1.10,2013-09-18 01:34:00,
2013-09-17 21:49:00,44.7,42.0,30.34,NNE,21,0.0,0.0,91,0.00,,,0.03,weatherlink.com 1.10,2013-09-18 01:49:00,
2013-09-17 22:04:00,44.3,42.0,30.34,NNE,21,0.0,1.0,92,0.00,,,0.03,weatherlink.com 1.10,2013-09-18 02:04:00,
2013-09-17 22:19:00,44.0,42.0,30.34,NNE,21,0.0,0.0,91,0.00,,,0.03,weatherlink.com 1.10,2013-09-18 02:19:00,
2013-09-17 22:34:00,43.8,42.0,30.34,NNE,21,0.0,0.0,92,0.00,,,0.03,weatherlink.com 1.10,2013-09-18 02:34:00,
2013-09-17 22:49:00,43.7,42.0,30.35,NNE,21,0.0,0.0,92,0.00,,,0.03,weatherlink.com 1.10,2013-09-18 02:49:00,
2013-09-17 23:04:00,43.6,42.0,30.35,NNE,21,1.0,2.0,92,0.00,,,0.03,weatherlink.com 1.10,2013-09-18 03:04:00,
2013-09-17 23:19:00,43.5,41.0,30.35,NNE,21,0.0,0.0,92,0.00,,,0.03,weatherlink.com 1.10,2013-09-18 03:19:00,
2013-09-17 23:34:00,43.3,41.0,30.35,NNE,21,0.0,0.0,92,0.00,,,0.03,weatherlink.com 1.10,2013-09-18 03:34:00,
2013-09-17 23:49:00,43.1,41.0,30.34,NNE,21,0.0,0.0,92,0.00,,,0.03,weatherlink.com 1.10,2013-09-18 03:49:00,